NOAA 16 DEB, 41427

Orbit data source: Space-Track

NOAA 16 DEB, 41427 is space debris in SSO originally from a launch on Thu, 21 Sep 2000 UTC launched from the Air Force Western Test Range (AFWTR). Debris objects in space refer to the collection of defunct objects orbiting the Earth. Examples of debris include non-operational satellites, rocket bodies, and fragments generated from explosions, collisions, or faulty payload assembly.

Loading next visibility...
Identifier
41427, 2000-055LG
Orbit
SSO
Country
Flag of USUS
Related business
Manufacturer
Unknown
Mission
Spacecraft
Bus & Motor
Unknown
Mass
Unknown
Launch date (UTC)
2000-09-21 (25 years ago)
Launch vehicle
Unknown
Launch site
Air Force Western Test Range (AFWTR)
Object type
Payload
Rocket body
Debris
Shape & HBR
Unknown shape, 0.1 m
Radar Cross Section
Small (<0.1 m²)

Expand to show TLE details & history
Last TLE update: 3 days ago

TLE from 3 days ago
0 NOAA 16 DEB
1 41427U 00055LG  25304.76595012  .00018465  00000-0  58752-2 0  9990
2 41427  98.9220  53.4572 0025643 112.6339 247.7564 14.39699687498818
Epoch: 2025-10-31T18:22Z
TLE epoch observation values (Epoch: 2025-10-31T18:22:58.090Z)
Latitude
0.00004°
Longitude
97.40947°
Altitude
769.395 km
Speed
7.466 km/s
True Right ascension
03h 33m 49s
True Declination
0° 00' 00"
Sunlit
Object was in full shadow at epoch
Visualization orbit readout
Latitude
Unknown
Longitude
Unknown
Altitude
Unknown
Speed
Unknown
Apparent Right ascension
Unknown
Apparent Declination
Unknown
Sunlit
N/A
Visualization observer readout
Local Sidereal Time
20:58:15
Azimuth
Unknown
Elevation
Unknown
Doppler factor
Unknown
Orbital elements
Apogee altitude
774.929 km
Perigee altitude
738.338 km
Semi-major axis
7,134.771 km
Eccentricity
0.00256
Inclination
98.922°
RAAN
53.4572°
Arg. of periapsis
112.6339°
True anomaly
247.48475°
Mean anomaly
247.7564°
Eccentric anomaly
247.62054°
Mean motion
3.60141 °/min
Orbital period
99.96 mins
BSTAR
0.0058752
Loading maneuver chart data...
Computing Atmospheric mass density...

Documentation

Showing up to 5 results
|